Погода в Фындыклы

Турция     41°16′35″N   41°08′51″E
темп.,
°C
ветер,
м/с
пор.,
м/с
влажн.,
%
обл.,
%
осадки,
мм/ч
давл.,
гПа
погр.,
м
24 июля, сб
сб2400:00+19юз228169 0.8 1012243
03:00+19юз238376 1.4 1012283
06:00+18зюз238990 1.6 1012520
09:00+18зсз338795 2.5 1012552
12:00+18с018665 0.3 1013388
15:00+20ссз117947 0.3 1012324
18:00+20ююз117737 0.7 1013345
21:00+19ю227569 0.8 1014225
25 июля, вс
вс2500:00+20ю117135 0.0 1014163
03:00+19в217827 0.1 1014178
06:00+19св117836 0.1 1014188
09:00+20ссз328360 0.4 1014453
12:00+20сз238987 0.3 1015382
15:00+20сз118856 0.4 1015227
18:00+21сз118134 0.1 1014315
21:00+20вюв00821 0.1 1015170
26 июля, пн
пн2600:00+19юв11795 0.0 1015168
03:00+19юв117717 0.0 101587
06:00+20юв11765 0.0 101698
09:00+22сз217423 0.0 1015474
12:00+22сз218038 0.1 1015357
15:00+22зсз218135 0.3 1015416
18:00+21з118233 0.1 1016362
21:00+21ю118451 0.1 1017205
27 июля, вт
вт2700:00+20ююв228118 0.1 1017145
03:00+20ююв227820 0.1 1017108
06:00+20ююз227526 0.0 1017149
09:00+21зюз448176 0.4 1017496
12:00+20юз458788 1.3 1018540
15:00+21ююз347854 2.9 1017319
18:00+22юз237617 0.3 1017236
21:00+20ююв44762 0.3 101777
28 июля, ср
ср2800:00+20ю23729 0.2 1017240
03:00+19ююз337860 0.4 1017289
06:00+20ююв227519 0.4 101691
09:00+22зсз227230 0.6 1016486
12:00+21з448236 1.2 1016576
15:00+21зюз348035 2.6 1015673
18:00+22з337718 0.1 1015399
21:00+20ю33790 0.2 101687